Regional Weather Roundup
Issued by NWS Midland/Odessa, TX

Skip options and go directly to product.
Home | Oldest Version | Previous Version | Current Version | All | Graphics & Text | Save Text | Print | Product List | Glossary On

Skip product version selection by date and time.   
903
ASUS44 KMAF 230202
RWRMAF
MIDLAND AREA WEATHER ROUNDUP
NATIONAL WEATHER SERVICE MIDLAND TX
900 PM CDT TUE JUL 22 2014

...IN SOUTHWEST TEXAS AND SOUTHEAST NEW MEXICO...

CITY           SKY/WX    TMP DP  RH WIND       PRES   REMARKS
ALPINE         FAIR      84  57  39 SE13G20   30.24R
ANDREWS        NOT AVBL
ARTESIA        FAIR      86  59  39 NW10      30.13R
BIG SPRING     FAIR      94  59  30 E6        30.10S
CARLSBAD       FAIR      94  50  22 E8        30.09R
DRYDEN           N/A     94  60  32 SE13      30.03R
FORT STOCKTON  FAIR      90  56  31 SE10      30.09R
GUAD PASS      FAIR      81  50  33 E20       30.28R
HOBBS          FAIR      86  57  37 E14       30.16R
MARFA          FAIR      81  54  39 E12       30.23R
MIDLAND AIRPK  FAIR      92  58  31 SE3       30.10R
MIDLAND INTL   FAIR      89  62  40 SE6       30.09R
ODESSA         FAIR      90  58  33 SE9       30.10S
PECOS          FAIR      92  55  28 E10       30.04S
PRESIDIO       FAIR      96  54  23 NE15      30.01R
SEMINOLE       FAIR      88  55  32 SE7       30.15R
SNYDER         MOCLDY    91  58  32 SE6       30.11R
WINK           FAIR      94  55  26 E15       30.05R
$$
...OTHER STATIONS IN TEXAS...

CITY           SKY/WX    TMP DP  RH WIND       PRES   REMARKS
ABILENE        FAIR      91  66  43 SE7       30.07R
AMARILLO       FAIR      77  67  71 SW7       30.23R
AUSTIN         FAIR      89  71  55 VRB6      29.99R
BROWNSVILLE    FAIR      83  77  82 SE10      29.98R
CORPUS CHRISTI FAIR      85  76  74 SE13      29.98R
DALLAS FTW     FAIR      89  70  53 E12       30.03R
DEL RIO        FAIR      94  59  31 E12       29.96R
EL PASO        LGT RAIN  77  64  64 SE9       30.16R
HOUSTON INT    FAIR      87  76  69 NE12      30.00R
LUBBOCK        MOCLDY    82  63  52 N6        30.17R
SAN ANGELO     FAIR      89  61  38 E8        30.05R
SAN ANTONIO    FAIR      88  65  46 SE5       30.00R
WACO           MOCLDY    88  71  57 E7        30.01R
WICHITA FALLS  NOT AVBL
$$
...OTHER LOCATIONS IN NEW MEXICO...

CITY           SKY/WX    TMP DP  RH WIND       PRES   REMARKS
ALAMAGORDO     FAIR      82  55  39 S6        30.17S
ALBUQUERQUE    MOCLDY    85  46  25 E18       30.27R
CANNON AFB     FAIR      77  65  65 E5        30.27R
CLOVIS         NOT AVBL
HOLLOMAN AFB   MOCLDY    89  50  26 SW6       30.16R
ROSWELL        FAIR      87  60  40 W6        30.15R
RUIDOSO        FAIR      66  57  72 MISG      30.45R
SANTA FE       FAIR      75  52  44 E12       30.38R
TRUTH OR CONSE CLOUDY    81  58  45 SW13      30.25R
TUCUMCARI      MOCLDY    86  63  45 E7        30.20R
$$

USA.gov is the U.S. government's official web portal to all federal, state and local government web resources and services.